Regional Weather Roundup
Issued by NWS

Home | Current Version | Previous Version | Text Only | Print | Product List | Glossary Off
Versions: 1 2 3 4 5 6 7 8 9 10 11 12 13 14 15 16 17 18 19 20 21 22 23 24 25 26 27 28 29 30 31 32 33 34 35 36 37 38 39 40 41 42 43 44 45 46 47 48 49 50

000
ASUS45 KBOU 212110
RWRCO

WEATHER ROUNDUP FOR COLORADO
NATIONAL WEATHER SERVICE DENVER/BOULDER CO
200 PM MST SUN JAN 21 2018

NOTE: "FAIR" INDICATES FEW OR NO CLOUDS BELOW 12000 FEET WITH NO
SIGNIFICANT WEATHER AND/OR OBSTRUCTIONS TO VISIBILITY.

COZ001>005-013-030-031-212200-
...NORTHWEST COLORADO...

CITY           SKY/WX    TMP DP  RH WIND       PRES   REMARKS
CRAIG          CLOUDY    24  15  68 N23G31    29.92R WCI   9
HAYDEN         PTSUNNY  N/A N/A N/A W12       29.91R
MEEKER         LGT SNOW  24  16  71 N16G24    29.94R WCI  11
RABBIT EARS PA LGT SNOW  10   9  92 N8        29.75R WCI  -1
STEAMBOAT SPGS CLOUDY    21  18  87 CALM      29.86R
WALDEN         CLOUDY    18  10  73 N15       29.83R WCI   3
$$

COZ006>008-011-212200-
...WEST CENTRAL VALLEYS...

CITY           SKY/WX    TMP DP  RH WIND       PRES   REMARKS
GRAND JUNCTION CLOUDY    31  23  72 W20       29.98R WCI  19
MONTROSE       PTSUNNY   29  19  66 NW26G39   29.94R WCI  14
EAGLE          LGT SNOW  25  21  85 W8        29.87R VSB 1   WCI  16
RIFLE          FAIR      30  19  63 NW14G30   29.93R WCI  19
DELTA          LGT SNOW  32  23  70 W22G28    29.93R WCI  19
NUCLA          CLOUDY    30  18  59 NW17G24   29.98R WCI  18
$$

COZ017>023-064>068-212200-
...SOUTHWEST COLORADO...

CITY           SKY/WX    TMP DP  RH WIND       PRES   REMARKS
DURANGO        FAIR      28  21  75 W21G33    29.76S WCI  15
CORTEZ         PTSUNNY   29  18  63 NW18G29   29.93R WCI  16
PAGOSA SPRINGS LGT SNOW  26  20  80 SW12      29.74R WCI  15
TELLURIDE      HVY SNOW  16  13  89 NW12G28   29.84R VSB 1/4 WCI   3
WOLF CREEK PAS SNOW       9   9 100 W3        29.70R VSB 1/4
$$

COZ009-010-012-014-032>034-037-058>063-212200-
...CENTRAL COLORADO...

CITY           SKY/WX    TMP DP  RH WIND       PRES   REMARKS
ASPEN          LGT SNOW  20  15  81 N8        29.80R VSB 1   WCI  10
BUENA VISTA    LGT SNOW  21  17  84 CALM      29.72R VSB 3/4
COPPER MTN     NOT AVBL
BERTHOUD PASS  SNOW       1  -9  60 W5        29.64R VSB 1/4 WCI  -8
COTTONWOOD PAS SNOW      21  19  93 CALM      29.69R VSB 1/2
GUNNISON       CLOUDY    21  16  81 W14G21    29.78R WCI   8
KREMMLING      CLOUDY    27  14  59 N15G25    29.82R WCI  15
LEADVILLE      CLOUDY    12   4  70 NW15G24   29.68R WCI  -4
MONARCH PASS   SNOW       7   3  85 W31       29.72R VSB 1/4 WCI -17
SALIDA         CLOUDY    24  21  89 N7        29.80R VSB 1/2 WCI  16
SUNLIGHT       CLOUDY   N/A N/A N/A W8G21     29.80R
WILKERSON PASS   N/A      9   5  85 NE6       29.66R WCI  -1
$$

COZ069>075-212200-
...SAN LUIS VALLEY/SANGRE DE CRISTO MOUNTAINS...

CITY           SKY/WX    TMP DP  RH WIND       PRES   REMARKS
ALAMOSA        LGT SNOW  26  19  74 NW14      29.68R WCI  14
DEL NORTE      CLOUDY    29   7  39 NW16G22   29.67R WCI  18
LA VETA PASS   SNOW      16  12  86 NE7         N/A  VSB 1/4 WCI   6
SAGUACHE       PTSUNNY   27  14  59 NW23G31   29.69R WCI  12
$$

COZ035-036-038>040-212200-
...NORTHERN COLORADO FRONT RANGE...

CITY           SKY/WX    TMP DP  RH WIND       PRES   REMARKS
DENVER INTL AP SNOW      24  20  84 N28G37    29.84R VSB 1/2 WCI   7
DMNS CITY PARK NOT AVBL
AURORA         LGT SNOW  23  23  99 N18G26    29.83R VSB 3/4 WCI   9
FRONT RANGE AP LGT SNOW  27  25  93 NW25G33   29.83R VSB 3/4 WCI  11
ERIE MUNI ARPT LGT SNOW  26  24  89 N21       29.93R WCI  12
BOULDER MUN AP LGT SNOW  27  25  93 N10       29.87R WCI  17
CENTENNIAL     SNOW      22  20  92 N25G36    29.82R VSB 1/4 WCI   5
BROOMFIELD     LGT SNOW  25  23  93 N17G24    29.86R VSB 1   WCI  11
FORT COLLINS   LGT SNOW  25  23  92 N17       29.89R VSB 3/4 WCI  12
LONGMONT       LGT SNOW  29  24  79 N18G25    29.91R WCI  17
$$

COZ041-046-047-076>085-087-088-212200-
...PIKES PEAK/PALMER DIVIDE AND SOUTHERN FOOTHILLS...

CITY           SKY/WX    TMP DP  RH WIND       PRES   REMARKS
COLO. SPRINGS  LGT SNOW  26  18  71 N23G38    29.74R FOG     WCI  11
A. F. ACADEMY  FAIR      22  17  79 NW26G36   29.73R BLWGSNOWWCI   5
SCHRIEVER AFB  SNOWSHWR  23  18  80 N22G29    29.73R FOG     WCI   8
CHEYENNE MTN   PTSUNNY   22  16  75 N17G29    29.64R WCI   8
ELLICOTT       LGT SNOW N/A N/A N/A N31G41    29.69R
FALCON         LGT SNOW  23  16  76 N22G31    29.71S VSB 1   WCI   7
FORT CARSON    PTSUNNY   27  16  63 N28G37    29.71R WCI  12
LIMON          LGT SNOW  25  23  92 N28G45    29.72R VSB 3/4 WCI   9
MONUMENT HILL  LGT SNOW  19  18  93 N22G31    29.75R VSB 3/4 WCI   3
CANON CITY     LGT SNOW  32  27  80 CALM      29.74R
WALSENBURG     CLOUDY    28  25  86 N13       29.72R WCI  18
TRINIDAD       LGT SNOW  28  24  85 N14       29.73R FOG     WCI  17
$$

COZ042>045-048>051-090-091-212200-
...NORTHEAST COLORADO...

CITY           SKY/WX    TMP DP  RH WIND       PRES   REMARKS
GREELEY ARPT   FLURRIES  26  23  88 N21       29.88R WCI  12
AKRON          FOG       26  24  92 N25G35    29.77R VSB 1/4 WCI  11
BURLINGTON     SNOW      29  27  92 N28G39    29.66R VSB 1/2 WCI  14
WRAY           SNOW      32  32 100 N21G31    29.72R VSB 1/4 WCI  20
YUMA           SNOW      28  27  93 N30       29.73S VSB 1/4 WCI  13
STERLING       NOT AVBL
HOLYOKE        SNOW      34  30  86 N25G31    29.76R VSB 1/2 WCI  21
FORT MORGAN    LGT SNOW  28  24  87 N21G31    29.84R VSB 3/4 WCI  14
$$

COZ086-089-092>099-212200-
...SOUTHEAST COLORADO...

CITY           SKY/WX    TMP DP  RH WIND       PRES   REMARKS
PUEBLO         CLOUDY    34  23  64 N15       29.75R WCI  24
LA JUNTA       SNOW      31  27  85 N22G28    29.73R VSB 1/2 WCI  18
LAMAR          HVY SNOW  31  29  92 N14       29.67R VSB 1/4 WCI  21
SPRINGFIELD      N/A     29  28  96 NW18      29.64S WCI  16
$$



USA.gov is the U.S. government's official web portal to all federal, state and local government web resources and services.